SL-16 R/B, 24298

Orbit data source: Space-Track

SL-16 R/B, 24298 is space debris in LEO originally from a launch on Wed, 04 Sep 1996 UTC launched from the Tyuratam Missile And Space Complex (TTMTR). Debris objects in space refer to the collection of defunct objects orbiting the Earth. Examples of debris include non-operational satellites, rocket bodies, and fragments generated from explosions, collisions, or faulty payload assembly.

Loading next visibility...
Identifier
24298, 1996-051B
Orbit
LEO
Country
Flag of CISCIS
Related business
Manufacturer
Yuzhnoe
Mission
Spacecraft
Bus & Motor
11S772, Unknown motor
Mass
9,000 kg wet, 9,000 kg dry
Launch date (UTC)
1996-09-04 (29 years ago)
Launch vehicle
Unknown
Launch site
Tyuratam Missile And Space Complex (TTMTR)
Object type
Payload
Rocket body
Debris
Shape & HBR
Cyl, 5.2 m
Radar Cross Section
37.829 m², Large (>1 m²)

Expand to show TLE details & history
Last TLE update: 12 hours ago

TLE from 12 hours ago
0 SL-16 R/B
1 24298U 96051B   25309.09447682 -.00000093  00000-0 -23497-4 0  9998
2 24298  70.7592  78.9620 0017631 309.2885  50.6671 14.12392175504056
Epoch: 2025-11-05T02:16Z
TLE epoch observation values (Epoch: 2025-11-05T02:16:02.797Z)
Latitude
0.00007°
Longitude
0.37829°
Altitude
845.512 km
Speed
7.434 km/s
True Right ascension
05h 15m 50s
True Declination
0° 00' 00"
Sunlit
Object was in full shadow at epoch
Visualization orbit readout
Latitude
Unknown
Longitude
Unknown
Altitude
Unknown
Speed
Unknown
Apparent Right ascension
Unknown
Apparent Declination
Unknown
Sunlit
N/A
Visualization observer readout
Local Sidereal Time
10:12:43
Azimuth
Unknown
Elevation
Unknown
Doppler factor
Unknown
Orbital elements
Apogee altitude
861.891 km
Perigee altitude
836.406 km
Semi-major axis
7,227.285 km
Eccentricity
0.00176
Inclination
70.7592°
RAAN
78.962°
Arg. of periapsis
309.2885°
True anomaly
50.82359°
Mean anomaly
50.6671°
Eccentric anomaly
50.74532°
Mean motion
3.53249 °/min
Orbital period
101.91 mins
BSTAR
-0.000023497
Loading maneuver chart data...
Computing Atmospheric mass density...
Loading historical data...
Loading historical data...
Loading historical data...
Loading historical data...
Loading historical data...
Loading historical data...
Loading historical data...

Documentation

Showing up to 5 results
|